�v������,�v���f�[�^(L),����(MJ),�����t���O
2003/3/1 0:00,6.353887319,0.237000003,0
2003/3/1 0:15,11.15281534,0.416000008,0
2003/3/1 0:30,9.999999999,0.373000003,0
2003/3/1 0:45,7.560321808,0.282000005,0
2003/3/1 1:00,6.434316396,0.240000002,0
2003/3/1 1:15,6.05898118,0.226000004,0
2003/3/1 1:30,17.61394096,0.657000021,0
2003/3/1 1:45,0,0,0
2003/3/1 2:00,15.97855234,0.595999986,0
2003/3/1 2:15,8.820375442,0.329000004,0
2003/3/1 2:30,11.68900847,0.436000004,0
2003/3/1 2:45,0,0,0
2003/3/1 3:00,0,0,0
2003/3/1 3:15,0,0,0
2003/3/1 3:30,0,0,0
2003/3/1 3:45,0,0,0
2003/3/1 4:00,0,0,0
2003/3/1 4:15,0,0,0
2003/3/1 4:30,0,0,0
2003/3/1 4:45,0,0,0
2003/3/1 5:00,0,0,0
2003/3/1 5:15,0,0,0
2003/3/1 5:30,0,0,0
2003/3/1 5:45,0,0,0
2003/3/1 6:00,0,0,0
2003/3/1 6:15,0,0,0
2003/3/1 6:30,0,0,0
2003/3/1 6:45,0,0,0
2003/3/1 7:00,0,0,0
2003/3/1 7:15,20.32171488,0.758000002,0
2003/3/1 7:30,26.99731827,1.006999999,0
2003/3/1 7:45,22.35924912,0.833999991,0
2003/3/1 8:00,9.812332631,0.366000004,0
2003/3/1 8:15,19.62466455,0.732000008,0
2003/3/1 8:30,21.04557657,0.785000026,0
2003/3/1 8:45,0,0,0
2003/3/1 9:00,0,0,0
2003/3/1 9:15,2.117962599,0.079000004,0
2003/3/1 9:30,27.13136578,1.011999995,0
2003/3/1 9:45,23.91420841,0.892000005,0
2003/3/1 10:00,12.01072407,0.447999999,0
2003/3/1 10:15,7.747989177,0.289000004,0
2003/3/1 10:30,6.970509291,0.259999998,0
2003/3/1 10:45,16.46112633,0.614000008,0
2003/3/1 11:00,19.59785509,0.731000006,0
2003/3/1 11:15,11.31367278,0.422000005,0
2003/3/1 11:30,10.80428958,0.402999997,0
2003/3/1 11:45,8.927613973,0.333000004,0
2003/3/1 12:00,11.8230567,0.441000015,0
2003/3/1 12:15,8.873994589,0.331,0
2003/3/1 12:30,0,0,0
2003/3/1 12:45,5.040214539,0.187999994,0
2003/3/1 13:00,27.15817642,1.013000012,0
2003/3/1 13:15,18.41823125,0.687000013,0
2003/3/1 13:30,6.193029403,0.231000006,0
2003/3/1 13:45,21.447721,0.79999999,0
2003/3/1 14:00,0,0,0
2003/3/1 14:15,0,0,0
2003/3/1 14:30,0,0,0
2003/3/1 14:45,0,0,0
2003/3/1 15:00,0,0,0
2003/3/1 15:15,0,0,0
2003/3/1 15:30,0,0,0
2003/3/1 15:45,0,0,0
2003/3/1 16:00,0,0,0
2003/3/1 16:15,0,0,0
2003/3/1 16:30,0,0,0
2003/3/1 16:45,0,0,0
2003/3/1 17:00,0,0,0
2003/3/1 17:15,0,0,0
2003/3/1 17:30,0,0,0
2003/3/1 17:45,9.463807434,0.353000013,0
2003/3/1 18:00,27.18498516,1.014,0
2003/3/1 18:15,8.230563164,0.307000011,0
2003/3/1 18:30,0,0,0
2003/3/1 18:45,0,0,0
2003/3/1 19:00,16.72922248,0.624000018,0
2003/3/1 19:15,0,0,0
2003/3/1 19:30,0,0,0
2003/3/1 19:45,0,0,0
2003/3/1 20:00,0,0,0
2003/3/1 20:15,0,0,0
2003/3/1 20:30,2.92225194,0.108999997,0
2003/3/1 20:45,27.18498516,1.014,0
2003/3/1 21:00,13.02949047,0.486000001,0
2003/3/1 21:15,0,0,0
2003/3/1 21:30,0,0,0
2003/3/1 21:45,20.29490638,0.757000007,0
2003/3/1 22:00,11.4745307,0.428000003,0
2003/3/1 22:15,11.31367302,0.422000006,0
2003/3/1 22:30,26.3538866,0.983000011,0
2003/3/1 22:45,26.32707787,0.981999993,0
2003/3/1 23:00,16.08579111,0.600000023,0
2003/3/1 23:15,14.71849871,0.548999994,0
2003/3/1 23:30,15.89812326,0.592999995,0
2003/3/1 23:45,20.67024136,0.770999997,0
2003/3/2 0:00,13.51206422,0.503999986,0
2003/3/2 0:15,6.032171487,0.225000009,0
2003/3/2 0:30,6.032171487,0.225000009,0
2003/3/2 0:45,8.79356575,0.328000009,0
2003/3/2 1:00,0,0,0
2003/3/2 1:15,0,0,0
2003/3/2 1:30,0,0,0
2003/3/2 1:45,0.187667564,0.007,0
2003/3/2 2:00,25.14745235,0.937999993,0
2003/3/2 2:15,7.935656785,0.296000004,0
2003/3/2 2:30,6.219839096,0.232000001,0
2003/3/2 2:45,6.246648788,0.233000003,0
2003/3/2 3:00,6.407506704,0.239,0
2003/3/2 3:15,6.085790872,0.227000006,0
2003/3/2 3:30,13.69973111,0.510999985,0
2003/3/2 3:45,0,0,0
2003/3/2 4:00,0,0,0
2003/3/2 4:15,0,0,0
2003/3/2 4:30,0,0,0
2003/3/2 4:45,0,0,0
2003/3/2 5:00,0,0,0
2003/3/2 5:15,0,0,0
2003/3/2 5:30,0,0,0
2003/3/2 5:45,0,0,0
2003/3/2 6:00,0,0,0
2003/3/2 6:15,0,0,0
2003/3/2 6:30,0,0,0
2003/3/2 6:45,0,0,0
2003/3/2 7:00,0,0,0
2003/3/2 7:15,17.64074993,0.657999993,0
2003/3/2 7:30,27.05093765,1.009000003,0
2003/3/2 7:45,24.79892778,0.925000013,0
2003/3/2 8:00,10.93833828,0.408000007,0
2003/3/2 8:15,12.52010727,0.467000008,0
2003/3/2 8:30,24.15549469,0.900999994,0
2003/3/2 8:45,17.29222488,0.645000011,0
2003/3/2 9:00,0,0,0
2003/3/2 9:15,0,0,0
2003/3/2 9:30,0,0,0
2003/3/2 9:45,0,0,0
2003/3/2 10:00,0,0,0
2003/3/2 10:15,0,0,0
2003/3/2 10:30,0,0,0
2003/3/2 10:45,0,0,0
2003/3/2 11:00,0,0,0
2003/3/2 11:15,0,0,0
2003/3/2 11:30,0,0,0
2003/3/2 11:45,0,0,0
2003/3/2 12:00,0,0,0
2003/3/2 12:15,0,0,0
2003/3/2 12:30,0,0,0
2003/3/2 12:45,0,0,0
2003/3/2 13:00,0,0,0
2003/3/2 13:15,0,0,0
2003/3/2 13:30,0,0,0
2003/3/2 13:45,0,0,0
2003/3/2 14:00,0,0,0
2003/3/2 14:15,0,0,0
2003/3/2 14:30,0,0,0
2003/3/2 14:45,0,0,0
2003/3/2 15:00,0,0,0
2003/3/2 15:15,0,0,0
2003/3/2 15:30,0,0,0
2003/3/2 15:45,0,0,0
2003/3/2 16:00,0,0,0
2003/3/2 16:15,0,0,0
2003/3/2 16:30,0,0,0
2003/3/2 16:45,0,0,0
2003/3/2 17:00,0,0,0
2003/3/2 17:15,0,0,0
2003/3/2 17:30,0,0,0
2003/3/2 17:45,0,0,0
2003/3/2 18:00,0,0,0
2003/3/2 18:15,0,0,0
2003/3/2 18:30,0,0,0
2003/3/2 18:45,0,0,0
2003/3/2 19:00,0,0,0
2003/3/2 19:15,0,0,0
2003/3/2 19:30,0,0,0
2003/3/2 19:45,0,0,0
2003/3/2 20:00,0,0,0
2003/3/2 20:15,0,0,0
2003/3/2 20:30,0,0,0
2003/3/2 20:45,0,0,0
2003/3/2 21:00,18.84718561,0.703000009,0
2003/3/2 21:15,0,0,0
2003/3/2 21:30,13.05630064,0.487000003,0
2003/3/2 21:45,0,0,0
2003/3/2 22:00,7.935657024,0.296000004,0
2003/3/2 22:15,8.579088211,0.319999993,0
2003/3/2 22:30,0,0,0
2003/3/2 22:45,0,0,0
2003/3/2 23:00,0,0,0
2003/3/2 23:15,0,0,0
2003/3/2 23:30,0,0,0
2003/3/2 23:45,0,0,0
2003/3/3 0:00,0,0,0
2003/3/3 0:15,0,0,0
2003/3/3 0:30,0,0,0
2003/3/3 0:45,17.39946365,0.649000004,0
2003/3/3 1:00,0,0,0
2003/3/3 1:15,0,0,0
2003/3/3 1:30,0,0,0
2003/3/3 1:45,0,0,0
2003/3/3 2:00,0,0,0
2003/3/3 2:15,0,0,0
2003/3/3 2:30,0,0,0
2003/3/3 2:45,0,0,0
2003/3/3 3:00,0,0,0
2003/3/3 3:15,0,0,0
2003/3/3 3:30,0,0,0
2003/3/3 3:45,0,0,0
2003/3/3 4:00,0,0,0
2003/3/3 4:15,0,0,0
2003/3/3 4:30,0,0,0
2003/3/3 4:45,0,0,0
2003/3/3 5:00,0,0,0
2003/3/3 5:15,0,0,0
2003/3/3 5:30,0,0,0
2003/3/3 5:45,0,0,0
2003/3/3 6:00,0,0,0
2003/3/3 6:15,0,0,0
2003/3/3 6:30,0,0,0
2003/3/3 6:45,0,0,0
2003/3/3 7:00,2.117962599,0.079000004,0
2003/3/3 7:15,27.18498516,1.014,0
2003/3/3 7:30,27.18498516,1.014,0
2003/3/3 7:45,26.2198391,0.978000015,0
2003/3/3 8:00,0,0,0
2003/3/3 8:15,0,0,0
2003/3/3 8:30,0,0,0
2003/3/3 8:45,0,0,0
2003/3/3 9:00,0,0,0
2003/3/3 9:15,0,0,0
2003/3/3 9:30,0,0,0
2003/3/3 9:45,0,0,0
2003/3/3 10:00,0,0,0
2003/3/3 10:15,0,0,0
2003/3/3 10:30,0,0,0
2003/3/3 10:45,0,0,0
2003/3/3 11:00,0,0,0
2003/3/3 11:15,0,0,0
2003/3/3 11:30,0,0,0
2003/3/3 11:45,0,0,0
2003/3/3 12:00,0,0,0
2003/3/3 12:15,0,0,0
2003/3/3 12:30,0,0,0
2003/3/3 12:45,0,0,0
2003/3/3 13:00,0,0,0
2003/3/3 13:15,0,0,0
2003/3/3 13:30,0,0,0
2003/3/3 13:45,0,0,0
2003/3/3 14:00,0,0,0
2003/3/3 14:15,0,0,0
2003/3/3 14:30,0,0,0
2003/3/3 14:45,0,0,0
2003/3/3 15:00,0,0,0
2003/3/3 15:15,0,0,0
2003/3/3 15:30,0,0,0
2003/3/3 15:45,0,0,0
2003/3/3 16:00,0,0,0
2003/3/3 16:15,0,0,0
2003/3/3 16:30,0,0,0
2003/3/3 16:45,0,0,0
2003/3/3 17:00,0,0,0
2003/3/3 17:15,0,0,0
2003/3/3 17:30,0,0,0
2003/3/3 17:45,0,0,0
2003/3/3 18:00,0,0,0
2003/3/3 18:15,0,0,0
2003/3/3 18:30,0,0,0
2003/3/3 18:45,26.16621876,0.976000012,0
2003/3/3 19:00,8.873994827,0.331,0
2003/3/3 19:15,0,0,0
2003/3/3 19:30,0,0,0
2003/3/3 19:45,0,0,0
2003/3/3 20:00,0,0,0
2003/3/3 20:15,0,0,0
2003/3/3 20:30,24.0214467,0.895999999,0
2003/3/3 20:45,26.86326981,1.002000005,0
2003/3/3 21:00,26.48793602,0.988000006,0
2003/3/3 21:15,29.03485203,1.083000004,0
2003/3/3 21:30,0,0,0
2003/3/3 21:45,0,0,0
2003/3/3 22:00,0,0,0
2003/3/3 22:15,0,0,0
2003/3/3 22:30,0,0,0
2003/3/3 22:45,0,0,0
2003/3/3 23:00,0,0,0
2003/3/3 23:15,0,0,0
2003/3/3 23:30,0,0,0
2003/3/3 23:45,0,0,0
2003/3/4 0:00,0,0,0
2003/3/4 0:15,0,0,0
2003/3/4 0:30,0,0,0
2003/3/4 0:45,0,0,0
2003/3/4 1:00,0,0,0
2003/3/4 1:15,0,0,0
2003/3/4 1:30,0,0,0
2003/3/4 1:45,0,0,0
2003/3/4 2:00,0,0,0
2003/3/4 2:15,0,0,0
2003/3/4 2:30,0,0,0
2003/3/4 2:45,0,0,0
2003/3/4 3:00,0,0,0
2003/3/4 3:15,0,0,0
2003/3/4 3:30,0,0,0
2003/3/4 3:45,0,0,0
2003/3/4 4:00,0,0,0
2003/3/4 4:15,0,0,0
2003/3/4 4:30,0,0,0
2003/3/4 4:45,0,0,0
2003/3/4 5:00,0,0,0
2003/3/4 5:15,0,0,0
2003/3/4 5:30,0,0,0
2003/3/4 5:45,0,0,0
2003/3/4 6:00,0,0,0
2003/3/4 6:15,0,0,0
2003/3/4 6:30,0,0,0
2003/3/4 6:45,0,0,0
2003/3/4 7:00,0,0,0
2003/3/4 7:15,25.06702328,0.935000003,0
2003/3/4 7:30,27.18498516,1.014,0
2003/3/4 7:45,18.84718514,0.70300001,0
2003/3/4 8:00,0,0,0
2003/3/4 8:15,0,0,0
2003/3/4 8:30,0,0,0
2003/3/4 8:45,0,0,0
2003/3/4 9:00,0,0,0
2003/3/4 9:15,0,0,0
2003/3/4 9:30,0,0,0
2003/3/4 9:45,0,0,0
2003/3/4 10:00,0,0,0
2003/3/4 10:15,0,0,0
2003/3/4 10:30,0,0,0
2003/3/4 10:45,0,0,0
2003/3/4 11:00,0,0,0
2003/3/4 11:15,0,0,0
2003/3/4 11:30,0,0,0
2003/3/4 11:45,0,0,0
2003/3/4 12:00,0,0,0
2003/3/4 12:15,0,0,0
2003/3/4 12:30,0,0,0
2003/3/4 12:45,0,0,0
2003/3/4 13:00,0,0,0
2003/3/4 13:15,0,0,0
2003/3/4 13:30,0,0,0
2003/3/4 13:45,0,0,0
2003/3/4 14:00,0,0,0
2003/3/4 14:15,0,0,0
2003/3/4 14:30,0,0,0
2003/3/4 14:45,0,0,0
2003/3/4 15:00,0,0,0
2003/3/4 15:15,0,0,0
2003/3/4 15:30,0,0,0
2003/3/4 15:45,0,0,0
2003/3/4 16:00,0,0,0
2003/3/4 16:15,0,0,0
2003/3/4 16:30,24.26273346,0.905000002,0
2003/3/4 16:45,22.8418231,0.852000014,0
2003/3/4 17:00,13.27077723,0.495000006,0
2003/3/4 17:15,12.92225146,0.481999994,0
2003/3/4 17:30,15.36193061,0.573000014,0
2003/3/4 17:45,23.91420889,0.89199999,0
2003/3/4 18:00,30.56300211,1.140000016,0
2003/3/4 18:15,0,0,0
2003/3/4 18:30,0,0,0
2003/3/4 18:45,0,0,0
2003/3/4 19:00,0,0,0
2003/3/4 19:15,0,0,0
2003/3/4 19:30,8.41823101,0.31400001,0
2003/3/4 19:45,25.49597693,0.950999974,0
2003/3/4 20:00,21.76943732,0.812000006,0
2003/3/4 20:15,11.44772053,0.426999986,0
2003/3/4 20:30,0,0,0
2003/3/4 20:45,0,0,0
2003/3/4 21:00,10.80428898,0.402999998,0
2003/3/4 21:15,21.52815008,0.803000003,0
2003/3/4 21:30,13.16353941,0.491000012,0
2003/3/4 21:45,10.99195719,0.410000004,0
2003/3/4 22:00,12.60053587,0.469999991,0
2003/3/4 22:15,10.99195743,0.410000004,0
2003/3/4 22:30,6.434316396,0.240000002,0
2003/3/4 22:45,19.19570994,0.715999991,0
2003/3/4 23:00,30.45576382,1.135999978,0
2003/3/4 23:15,19.81233168,0.738999993,0
2003/3/4 23:30,0,0,0
2003/3/4 23:45,0,0,0
2003/3/5 0:00,0,0,0
2003/3/5 0:15,0,0,0
2003/3/5 0:30,0,0,0
2003/3/5 0:45,0,0,0
2003/3/5 1:00,0,0,0
2003/3/5 1:15,17.88203716,0.666999996,0
2003/3/5 1:30,27.18498516,1.014,0
2003/3/5 1:45,17.80160809,0.664000005,0
2003/3/5 2:00,0,0,0
2003/3/5 2:15,0,0,0
2003/3/5 2:30,9.034852825,0.337000004,0
2003/3/5 2:45,27.18498516,1.014,0
2003/3/5 3:00,27.18498516,1.014,0
2003/3/5 3:15,27.18498516,1.014,0
2003/3/5 3:30,31.76943588,1.185000003,0
2003/3/5 3:45,0,0,0
2003/3/5 4:00,0,0,0
2003/3/5 4:15,0,0,0
2003/3/5 4:30,0,0,0
2003/3/5 4:45,0,0,0
2003/3/5 5:00,0,0,0
2003/3/5 5:15,0,0,0
2003/3/5 5:30,0,0,0
2003/3/5 5:45,0,0,0
2003/3/5 6:00,0,0,0
2003/3/5 6:15,0,0,0
2003/3/5 6:30,0,0,0
2003/3/5 6:45,0,0,0
2003/3/5 7:00,0,0,0
2003/3/5 7:15,11.23324347,0.419,0
2003/3/5 7:30,27.18498516,1.014,0
2003/3/5 7:45,24.20911503,0.902999998,0
2003/3/5 8:00,3.994638205,0.149000004,0
2003/3/5 8:15,27.18498516,1.014,0
2003/3/5 8:30,27.18498516,1.014,0
2003/3/5 8:45,20.29490566,0.757,0
2003/3/5 9:00,0,0,0
2003/3/5 9:15,0,0,0
2003/3/5 9:30,0,0,0
2003/3/5 9:45,0,0,0
2003/3/5 10:00,0,0,0
2003/3/5 10:15,0,0,0
2003/3/5 10:30,0,0,0
2003/3/5 10:45,0,0,0
2003/3/5 11:00,0,0,0
2003/3/5 11:15,14.71849823,0.548999995,0
2003/3/5 11:30,24.6648798,0.920000017,0
2003/3/5 11:45,11.90348577,0.444000006,0
2003/3/5 12:00,29.99999953,1.118999989,0
2003/3/5 12:15,0,0,0
2003/3/5 12:30,0,0,0
2003/3/5 12:45,0,0,0
2003/3/5 13:00,0,0,0
2003/3/5 13:15,0,0,0
2003/3/5 13:30,0,0,0
2003/3/5 13:45,0,0,0
2003/3/5 14:00,0,0,0
2003/3/5 14:15,0,0,0
2003/3/5 14:30,0,0,0
2003/3/5 14:45,0,0,0
2003/3/5 15:00,0,0,0
2003/3/5 15:15,0,0,0
2003/3/5 15:30,0,0,0
2003/3/5 15:45,0,0,0
2003/3/5 16:00,0,0,0
2003/3/5 16:15,0,0,0
2003/3/5 16:30,0,0,0
2003/3/5 16:45,0,0,0
2003/3/5 17:00,0,0,0
2003/3/5 17:15,0,0,0
2003/3/5 17:30,22.27882052,0.831000015,0
2003/3/5 17:45,25.76407528,0.960999995,0
2003/3/5 18:00,23.00268173,0.858000011,0
2003/3/5 18:15,20.05361986,0.748000011,0
2003/3/5 18:30,26.78284264,0.999000012,0
2003/3/5 18:45,0,0,0
2003/3/5 19:00,0,0,0
2003/3/5 19:15,0,0,0
2003/3/5 19:30,15.522789,0.579000026,0
2003/3/5 19:45,16.48793507,0.614999995,0
2003/3/5 20:00,6.541554927,0.244000003,0
2003/3/5 20:15,6.032171487,0.225000009,0
2003/3/5 20:30,6.032171487,0.225000009,0
2003/3/5 20:45,6.27345848,0.234000005,0
2003/3/5 21:00,6.246648788,0.233000003,0
2003/3/5 21:15,6.032171487,0.225000009,0
2003/3/5 21:30,6.032171487,0.225000009,0
2003/3/5 21:45,6.27345848,0.234000005,0
2003/3/5 22:00,6.246648788,0.233000003,0
2003/3/5 22:15,6.890080452,0.256999999,0
2003/3/5 22:30,10.24128723,0.381999999,0
2003/3/5 22:45,0,0,0
2003/3/5 23:00,1.82305634,0.068000004,0
2003/3/5 23:15,18.33780146,0.684000001,0
2003/3/5 23:30,6.380697012,0.237999998,0
2003/3/5 23:45,6.139410257,0.22900001,0
2003/3/6 0:00,15.30831075,0.571000003,0
2003/3/6 0:15,27.18498516,1.014,0
2003/3/6 0:30,27.18498516,1.014,0
2003/3/6 0:45,26.97050953,1.006000012,0
2003/3/6 1:00,27.18498516,1.014,0
2003/3/6 1:15,25.54959774,0.953000008,0
2003/3/6 1:30,22.81501341,0.85100001,0
2003/3/6 1:45,11.98391438,0.446999997,0
2003/3/6 2:00,0,0,0
2003/3/6 2:15,0,0,0
2003/3/6 2:30,0,0,0
2003/3/6 2:45,0,0,0
2003/3/6 3:00,0,0,0
2003/3/6 3:15,0,0,0
2003/3/6 3:30,0,0,0
2003/3/6 3:45,0,0,0
2003/3/6 4:00,0,0,0
2003/3/6 4:15,0,0,0
2003/3/6 4:30,0,0,0
2003/3/6 4:45,0,0,0
2003/3/6 5:00,0,0,0
2003/3/6 5:15,0,0,0
2003/3/6 5:30,0,0,0
2003/3/6 5:45,0,0,0
2003/3/6 6:00,0,0,0
2003/3/6 6:15,0,0,0
2003/3/6 6:30,0,0,0
2003/3/6 6:45,0,0,0
2003/3/6 7:00,5.683646202,0.211999997,0
2003/3/6 7:15,27.18498516,1.014,0
2003/3/6 7:30,27.18498516,1.014,0
2003/3/6 7:45,27.18498516,1.014,0
2003/3/6 8:00,26.75603199,0.997999996,0
2003/3/6 8:15,11.20643425,0.418000013,0
2003/3/6 8:30,0,0,0
2003/3/6 8:45,0,0,0
2003/3/6 9:00,0,0,0
2003/3/6 9:15,0,0,0
2003/3/6 9:30,0,0,0
2003/3/6 9:45,0,0,0
2003/3/6 10:00,0,0,0
2003/3/6 10:15,0,0,0
2003/3/6 10:30,11.42091107,0.426,0
2003/3/6 10:45,17.85522747,0.666000009,0
2003/3/6 11:00,0,0,0
2003/3/6 11:15,0,0,0
2003/3/6 11:30,0,0,0
2003/3/6 11:45,5.630026817,0.209999993,0
2003/3/6 12:00,15.52278805,0.578999996,0
2003/3/6 12:15,18.87399388,0.703999981,0
2003/3/6 12:30,0,0,0
2003/3/6 12:45,0,0,0
2003/3/6 13:00,0,0,0
2003/3/6 13:15,0,0,0
2003/3/6 13:30,0,0,0
2003/3/6 13:45,0,0,0
2003/3/6 14:00,0,0,0
2003/3/6 14:15,0,0,0
2003/3/6 14:30,0,0,0
2003/3/6 14:45,0,0,0
2003/3/6 15:00,0,0,0
2003/3/6 15:15,0,0,0
2003/3/6 15:30,0,0,0
2003/3/6 15:45,0,0,0
2003/3/6 16:00,0,0,0
2003/3/6 16:15,0,0,0
2003/3/6 16:30,0,0,0
2003/3/6 16:45,0,0,0
2003/3/6 17:00,0,0,0
2003/3/6 17:15,0,0,0
2003/3/6 17:30,0,0,0
2003/3/6 17:45,0,0,0
2003/3/6 18:00,0,0,0
2003/3/6 18:15,0,0,0
2003/3/6 18:30,0,0,0
2003/3/6 18:45,0,0,0
2003/3/6 19:00,0,0,0
2003/3/6 19:15,0,0,0
2003/3/6 19:30,2.92225194,0.108999997,0
2003/3/6 19:45,27.18498516,1.014,0
2003/3/6 20:00,25.12064266,0.937000006,0
2003/3/6 20:15,22.09115362,0.824000031,0
2003/3/6 20:30,14.04825759,0.524000005,0
2003/3/6 20:45,10.42895484,0.389000006,0
2003/3/6 21:00,0,0,0
2003/3/6 21:15,0,0,0
2003/3/6 21:30,0,0,0
2003/3/6 21:45,0,0,0
2003/3/6 22:00,0,0,0
2003/3/6 22:15,0,0,0
2003/3/6 22:30,0,0,0
2003/3/6 22:45,0,0,0
2003/3/6 23:00,0,0,0
2003/3/6 23:15,0,0,0
2003/3/6 23:30,0,0,0
2003/3/6 23:45,0,0,0
2003/3/7 0:00,0,0,0
2003/3/7 0:15,0,0,0
2003/3/7 0:30,0,0,0
2003/3/7 0:45,0,0,0
2003/3/7 1:00,0,0,0
2003/3/7 1:15,11.5549593,0.431000002,0
2003/3/7 1:30,27.18498516,1.014,0
2003/3/7 1:45,27.18498516,1.014,0
2003/3/7 2:00,27.05093765,1.009000004,0
2003/3/7 2:15,27.10455704,1.011000008,0
2003/3/7 2:30,26.78284073,0.998999983,0
2003/3/7 2:45,25.38873959,0.946999996,0
2003/3/7 3:00,21.55495977,0.80399999,0
2003/3/7 3:15,13.24396777,0.493999988,0
2003/3/7 3:30,14.55764055,0.542999997,0
2003/3/7 3:45,14.31635428,0.534000009,0
2003/3/7 4:00,14.79892778,0.552000016,0
2003/3/7 4:15,0,0,0
2003/3/7 4:30,0,0,0
2003/3/7 4:45,0,0,0
2003/3/7 5:00,0,0,0
2003/3/7 5:15,0,0,0
2003/3/7 5:30,0,0,0
2003/3/7 5:45,0,0,0
2003/3/7 6:00,0,0,0
2003/3/7 6:15,0,0,0
2003/3/7 6:30,0,0,0
2003/3/7 6:45,0,0,0
2003/3/7 7:00,0,0,0
2003/3/7 7:15,0,0,0
2003/3/7 7:30,14.71849823,0.548999995,0
2003/3/7 7:45,27.18498516,1.014,0
2003/3/7 8:00,27.18498516,1.014,0
2003/3/7 8:15,19.30294895,0.719999999,0
2003/3/7 8:30,0,0,0
2003/3/7 8:45,0,0,0
2003/3/7 9:00,22.57372642,0.842000015,0
2003/3/7 9:15,0,0,0
2003/3/7 9:30,0,0,0
2003/3/7 9:45,0,0,0
2003/3/7 10:00,0,0,0
2003/3/7 10:15,0,0,0
2003/3/7 10:30,0,0,0
2003/3/7 10:45,5.576407433,0.208000004,0
2003/3/7 11:00,18.52546787,0.690999985,0
2003/3/7 11:15,0,0,0
2003/3/7 11:30,17.02412796,0.634999991,0
2003/3/7 11:45,25.49597836,0.951000005,0
2003/3/7 12:00,21.82305622,0.814000011,0
2003/3/7 12:15,13.56568336,0.505999982,0
2003/3/7 12:30,0,0,0
2003/3/7 12:45,0,0,0
2003/3/7 13:00,0,0,0
2003/3/7 13:15,0,0,0
2003/3/7 13:30,0,0,0
2003/3/7 13:45,23.61930228,0.880999982,0
2003/3/7 14:00,0,0,0
2003/3/7 14:15,0,0,0
2003/3/7 14:30,0,0,0
2003/3/7 14:45,0,0,0
2003/3/7 15:00,0,0,0
2003/3/7 15:15,0,0,0
2003/3/7 15:30,0,0,0
2003/3/7 15:45,0,0,0
2003/3/7 16:00,0,0,0
2003/3/7 16:15,0,0,0
2003/3/7 16:30,0,0,0
2003/3/7 16:45,0,0,0
2003/3/7 17:00,14.98659515,0.559000015,0
2003/3/7 17:15,8.579088211,0.319999993,0
2003/3/7 17:30,26.43431568,0.986000002,0
2003/3/7 17:45,11.20643449,0.418000005,0
2003/3/7 18:00,16.54155469,0.616999991,0
2003/3/7 18:15,17.66756058,0.659000009,0
2003/3/7 18:30,8.445039749,0.314999998,0
2003/3/7 18:45,0,0,0
2003/3/7 19:00,10.75066984,0.401000001,0
2003/3/7 19:15,25.28150225,0.943000018,0
2003/3/7 19:30,18.92761373,0.705999985,0
2003/3/7 19:45,12.19839168,0.455000005,0
2003/3/7 20:00,12.22520113,0.455999993,0
2003/3/7 20:15,11.12600517,0.414999992,0
2003/3/7 20:30,0,0,0
2003/3/7 20:45,0,0,0
2003/3/7 21:00,0,0,0
2003/3/7 21:15,1.420911551,0.052999999,0
2003/3/7 21:30,8.632707596,0.321999997,0
2003/3/7 21:45,23.51206446,0.877000004,0
2003/3/7 22:00,11.4745307,0.428000002,0
2003/3/7 22:15,7.319035053,0.273000003,0
2003/3/7 22:30,13.75335145,0.512999997,0
2003/3/7 22:45,10.53619266,0.392999991,0
2003/3/7 23:00,11.47453094,0.428000003,0
2003/3/7 23:15,9.731903315,0.362999991,0
2003/3/7 23:30,17.72117996,0.661000014,0
2003/3/7 23:45,0,0,0
2003/3/8 0:00,0,0,0
2003/3/8 0:15,1.662198305,0.061999999,0
2003/3/8 0:30,26.30026817,0.981000006,0
2003/3/8 0:45,0,0,0
2003/3/8 1:00,0,0,0
2003/3/8 1:15,17.47989273,0.65200001,0
2003/3/8 1:30,23.45844507,0.875,0
2003/3/8 1:45,9.490617037,0.354000003,0
2003/3/8 2:00,12.3324399,0.46,0
2003/3/8 2:15,12.30562997,0.458999999,0
2003/3/8 2:30,6.300268173,0.235,0
2003/3/8 2:45,9.329758644,0.34799999,0
2003/3/8 3:00,0,0,0
2003/3/8 3:15,0,0,0
2003/3/8 3:30,0,0,0
2003/3/8 3:45,0,0,0
2003/3/8 4:00,0,0,0
2003/3/8 4:15,0,0,0
2003/3/8 4:30,0,0,0
2003/3/8 4:45,0,0,0
2003/3/8 5:00,0,0,0
2003/3/8 5:15,0,0,0
2003/3/8 5:30,0,0,0
2003/3/8 5:45,0,0,0
2003/3/8 6:00,0,0,0
2003/3/8 6:15,0,0,0
2003/3/8 6:30,0,0,0
2003/3/8 6:45,0,0,0
2003/3/8 7:00,0,0,0
2003/3/8 7:15,0,0,0
2003/3/8 7:30,0,0,0
2003/3/8 7:45,0,0,0
2003/3/8 8:00,23.6193018,0.880999998,0
2003/3/8 8:15,27.18498516,1.014,0
2003/3/8 8:30,27.18498516,1.014,0
2003/3/8 8:45,29.86595154,1.114000023,0
2003/3/8 9:00,0,0,0
2003/3/8 9:15,23.91420841,0.892000006,0
2003/3/8 9:30,27.18498516,1.014,0
2003/3/8 9:45,26.32707691,0.981999993,0
2003/3/8 10:00,10.37533474,0.386999995,0
2003/3/8 10:15,0,0,0
2003/3/8 10:30,0,0,0
2003/3/8 10:45,0,0,0
2003/3/8 11:00,0,0,0
2003/3/8 11:15,0,0,0
2003/3/8 11:30,0,0,0
2003/3/8 11:45,0,0,0
2003/3/8 12:00,0,0,0
2003/3/8 12:15,0,0,0
2003/3/8 12:30,0,0,0
2003/3/8 12:45,0,0,0
2003/3/8 13:00,0,0,0
2003/3/8 13:15,0,0,0
2003/3/8 13:30,0,0,0
2003/3/8 13:45,0,0,0
2003/3/8 14:00,0,0,0
2003/3/8 14:15,0,0,0
2003/3/8 14:30,0,0,0
2003/3/8 14:45,0,0,0
2003/3/8 15:00,0,0,0
2003/3/8 15:15,0,0,0
2003/3/8 15:30,0,0,0
2003/3/8 15:45,0,0,0
2003/3/8 16:00,0,0,0
2003/3/8 16:15,0,0,0
2003/3/8 16:30,0,0,0
2003/3/8 16:45,0,0,0
2003/3/8 17:00,0,0,0
2003/3/8 17:15,0,0,0
2003/3/8 17:30,25.97855186,0.969000013,0
2003/3/8 17:45,27.07774639,1.009999991,0
2003/3/8 18:00,22.43967819,0.836999982,0
2003/3/8 18:15,19.08847189,0.712000011,0
2003/3/8 18:30,18.60589886,0.694000021,0
2003/3/8 18:45,24.93297625,0.930000007,0
2003/3/8 19:00,27.05093765,1.009000004,0
2003/3/8 19:15,17.34584475,0.647,0
2003/3/8 19:30,6.032171487,0.225000009,0
2003/3/8 19:45,3.243967771,0.121000003,0
2003/3/8 20:00,0,0,0
2003/3/8 20:15,0,0,0
2003/3/8 20:30,0,0,0
2003/3/8 20:45,0,0,0
2003/3/8 21:00,0,0,0
2003/3/8 21:15,0,0,0
2003/3/8 21:30,0,0,0
2003/3/8 21:45,0,0,0
2003/3/8 22:00,0,0,0
2003/3/8 22:15,0,0,0
2003/3/8 22:30,0,0,0
2003/3/8 22:45,0,0,0
2003/3/8 23:00,0,0,0
2003/3/8 23:15,0,0,0
2003/3/8 23:30,16.273458,0.606999994,0
2003/3/8 23:45,26.91689015,1.004000008,0
2003/3/9 0:00,19.46380711,0.725999981,0
2003/3/9 0:15,0,0,0
2003/3/9 0:30,0.268096507,0.01,0
2003/3/9 0:45,27.10455704,1.011000008,0
2003/3/9 1:00,25.25469256,0.942000031,0
2003/3/9 1:15,23.69973135,0.884000003,0
2003/3/9 1:30,21.84986591,0.815000013,0
2003/3/9 1:45,15.89812326,0.592999995,0
2003/3/9 2:00,18.5254693,0.691,0
2003/3/9 2:15,16.05898142,0.599000007,0
2003/3/9 2:30,15.20107174,0.566999986,0
2003/3/9 2:45,10.10723853,0.377000003,0
2003/3/9 3:00,29.49061489,1.099999964,0
2003/3/9 3:15,3.351206541,0.125,0
2003/3/9 3:30,0,0,0
2003/3/9 3:45,0,0,0
2003/3/9 4:00,0,0,0
2003/3/9 4:15,0,0,0
2003/3/9 4:30,0,0,0
2003/3/9 4:45,0,0,0
2003/3/9 5:00,0,0,0
2003/3/9 5:15,0,0,0
2003/3/9 5:30,0,0,0
2003/3/9 5:45,0,0,0
2003/3/9 6:00,0,0,0
2003/3/9 6:15,0,0,0
2003/3/9 6:30,0,0,0
2003/3/9 6:45,0,0,0
2003/3/9 7:00,0,0,0
2003/3/9 7:15,0,0,0
2003/3/9 7:30,3.994638205,0.149000004,0
2003/3/9 7:45,27.18498516,1.014,0
2003/3/9 8:00,27.10455704,1.011000008,0
2003/3/9 8:15,26.5683651,0.990999996,0
2003/3/9 8:30,27.05093765,1.009000004,0
2003/3/9 8:45,27.18498516,1.014,0
2003/3/9 9:00,27.18498516,1.014,0
2003/3/9 9:15,19.99999905,0.745999992,0
2003/3/9 9:30,0,0,0
2003/3/9 9:45,0,0,0
2003/3/9 10:00,0,0,0
2003/3/9 10:15,0,0,0
2003/3/9 10:30,0,0,0
2003/3/9 10:45,0,0,0
2003/3/9 11:00,0,0,0
2003/3/9 11:15,0,0,0
2003/3/9 11:30,0,0,0
2003/3/9 11:45,0,0,0
2003/3/9 12:00,0,0,0
2003/3/9 12:15,0,0,0
2003/3/9 12:30,0,0,0
2003/3/9 12:45,0,0,0
2003/3/9 13:00,0,0,0
2003/3/9 13:15,0,0,0
2003/3/9 13:30,0,0,0
2003/3/9 13:45,0,0,0
2003/3/9 14:00,0,0,0
2003/3/9 14:15,0,0,0
2003/3/9 14:30,0,0,0
2003/3/9 14:45,0,0,0
2003/3/9 15:00,0,0,0
2003/3/9 15:15,0,0,0
2003/3/9 15:30,0,0,0
2003/3/9 15:45,0,0,0
2003/3/9 16:00,0,0,0
2003/3/9 16:15,0,0,0
2003/3/9 16:30,0,0,0
2003/3/9 16:45,0,0,0
2003/3/9 17:00,0,0,0
2003/3/9 17:15,0,0,0
2003/3/9 17:30,0,0,0
2003/3/9 17:45,0,0,0
2003/3/9 18:00,0,0,0
2003/3/9 18:15,0,0,0
2003/3/9 18:30,0,0,0
2003/3/9 18:45,0,0,0
2003/3/9 19:00,3.512064219,0.130999997,0
2003/3/9 19:15,17.77479839,0.662999988,0
2003/3/9 19:30,1.099195719,0.041000001,0
2003/3/9 19:45,25.44235849,0.949000001,0
2003/3/9 20:00,19.83914232,0.74000001,0
2003/3/9 20:15,12.84182358,0.479000002,0
2003/3/9 20:30,0,0,0
2003/3/9 20:45,7.238605976,0.270000011,0
2003/3/9 21:00,17.85522723,0.665999994,0
2003/3/9 21:15,6.809651375,0.254000001,0
2003/3/9 21:30,6.836461306,0.255000003,0
2003/3/9 21:45,6.27345848,0.234000005,0
2003/3/9 22:00,6.407506704,0.239,0
2003/3/9 22:15,6.27345848,0.234000005,0
2003/3/9 22:30,6.246648788,0.233000003,0